sat.trackr.live / text

‹ back to catalog

STARLINK-32857

NORAD 62949 · 2025-029B

PAYLOAD ACTIVE UNKNOWN

§ Identity

Operator
Country
US
Launch date
2025-02-11
Launch site
AFWTR
Launch vehicle
Mass (kg)
RCS (m²)

Purposes: comms

External: N2YO · Heavens-Above · Gunter

§ Orbital elements

Epoch: 2026-05-25T05:27:16.737120Z

Period
93.87 min
Inclination
53.1595°
Eccentricity
0.0001231
Mean motion
15.34098140 rev/d
Perigee alt
462.8 km
Apogee alt
464.4 km
Semi-major
6,841.7 km
B*
8.4637e-3
RAAN
234.2715°
Arg perigee
233.6101°
Mean anomaly
126.4788°
Rev number
7,311

§ Raw data

STARLINK-328571 62949U 25029B   26145.22727705  .00294230  00000+0  84637-2 0  99972 62949  53.1595 234.2715 0001231 233.6101 126.4788 15.34098140 73110

JSON: /api/v1/satellites/62949 · /tle

For live sub-satellite position, see the globe view (requires WebGL).

§ Visibility from observer

Set your observer location to see the next 7 days of passes ≥ 10°. The values pass through the URL so the page stays shareable.

No JS? Fill the form by hand. The geolocation button needs JavaScript.